• In France
  • List of Countries
  • For 7 days
  • Water Temperature
  • Satellite Maps
  • Weather Map
  • Weather Widgets
  • user-avatar
    Login

    Hourly Weather Saurimo

    Today, 17 January, Wednesday

    Time Temperature Precipitation Wind Pressure Humidity
    00:00 +20°C° 0 mm 1 mps 669 mmHg 95%
    01:00 +20°C° 0 mm 1 mps 669 mmHg 95%
    02:00 +20°C° 0 mm 1 mps 669 mmHg 95%
    03:00 +19°C° 0 mm 1 mps 669 mmHg 95%
    04:00 +19°C° 0 mm 1 mps 669 mmHg 94%
    05:00 +20°C° 0.1 mm 1 mps 669 mmHg 93%
    06:00 +20°C° 0.1 mm 1 mps 670 mmHg 92%
    07:00 +20°C° 0.1 mm 1 mps 670 mmHg 91%
    08:00 +22°C° 0.1 mm 1 mps 670 mmHg 85%
    09:00 +24°C° 0.1 mm 2 mps 671 mmHg 78%
    10:00 +25°C° 0.1 mm 2 mps 671 mmHg 72%
    11:00 +26°C° 0 mm 2 mps 670 mmHg 68%
    12:00 +27°C° 0 mm 2 mps 670 mmHg 63%
    13:00 +28°C° 0 mm 2 mps 670 mmHg 59%
    14:00 +28°C° 0.2 mm 2 mps 669 mmHg 62%
    15:00 +28°C° 0.2 mm 2 mps 668 mmHg 66%
    16:00 +27°C° 0.2 mm 2 mps 668 mmHg 69%
    17:00 +25°C° 0.2 mm 2 mps 668 mmHg 76%
    18:00 +24°C° 0.2 mm 2 mps 668 mmHg 84%
    19:00 +22°C° 0.2 mm 1 mps 668 mmHg 92%
    20:00 +21°C° 0 mm 1 mps 668 mmHg 93%
    21:00 +21°C° 0 mm 1 mps 669 mmHg 94%
    22:00 +21°C° 0 mm 1 mps 669 mmHg 94%
    23:00 +20°C° 0.1 mm 1 mps 669 mmHg 95%

    Tomorrow, 18 January, Thursday

    Time Temperature Precipitation Wind Pressure Humidity
    00:00 +20°C° 0.1 mm 1 mps 668 mmHg 95%
    01:00 +20°C° 0.1 mm 1 mps 668 mmHg 95%
    02:00 +20°C° 0.5 mm 1 mps 668 mmHg 95%
    03:00 +20°C° 0.5 mm 1 mps 668 mmHg 96%
    04:00 +20°C° 0.5 mm 1 mps 668 mmHg 96%
    05:00 +20°C° 0.6 mm 1 mps 669 mmHg 96%
    06:00 +20°C° 0.6 mm 1 mps 669 mmHg 95%
    07:00 +21°C° 0.6 mm 1 mps 669 mmHg 94%
    08:00 +21°C° 0.9 mm 2 mps 670 mmHg 91%
    09:00 +23°C° 0.9 mm 2 mps 670 mmHg 88%
    10:00 +24°C° 0.9 mm 3 mps 670 mmHg 85%
    11:00 +25°C° 0.9 mm 3 mps 670 mmHg 83%
    12:00 +25°C° 0.9 mm 3 mps 669 mmHg 82%
    13:00 +26°C° 0.9 mm 3 mps 669 mmHg 81%
    14:00 +26°C° 0.6 mm 3 mps 668 mmHg 81%
    15:00 +26°C° 0.6 mm 3 mps 668 mmHg 80%
    16:00 +26°C° 0.6 mm 2 mps 667 mmHg 80%
    17:00 +24°C° 0.7 mm 2 mps 668 mmHg 85%
    18:00 +23°C° 0.7 mm 2 mps 668 mmHg 90%
    19:00 +20°C° 0.7 mm 2 mps 668 mmHg 94%
    20:00 +21°C° 0.6 mm 1 mps 668 mmHg 95%
    21:00 +21°C° 0.6 mm 1 mps 669 mmHg 96%
    22:00 +21°C° 0.6 mm 1 mps 669 mmHg 96%
    23:00 +20°C° 0.2 mm 1 mps 669 mmHg 97%

    Day after tomorrow, 19 January, Friday

    Time Temperature Precipitation Wind Pressure Humidity
    00:00 +20°C° 0.2 mm 1 mps 669 mmHg 97%
    01:00 +20°C° 0.2 mm 1 mps 668 mmHg 98%
    02:00 +20°C° 0 mm 1 mps 668 mmHg 98%
    03:00 +19°C° 0 mm 1 mps 668 mmHg 98%
    04:00 +19°C° 0 mm 1 mps 668 mmHg 98%
    05:00 +20°C° 0.1 mm 1 mps 668 mmHg 98%
    06:00 +20°C° 0.1 mm 1 mps 669 mmHg 97%
    07:00 +20°C° 0.1 mm 1 mps 669 mmHg 96%
    08:00 +21°C° 0.2 mm 1 mps 670 mmHg 92%
    09:00 +21°C° 0.2 mm 2 mps 670 mmHg 89%
    10:00 +23°C° 0.2 mm 2 mps 670 mmHg 85%
    11:00 +24°C° 0.4 mm 3 mps 670 mmHg 80%
    12:00 +25°C° 0.4 mm 3 mps 669 mmHg 76%
    13:00 +26°C° 0.4 mm 3 mps 669 mmHg 72%
    14:00 +26°C° 0.4 mm 3 mps 668 mmHg 72%
    15:00 +26°C° 0.4 mm 2 mps 668 mmHg 73%
    16:00 +26°C° 0.4 mm 2 mps 668 mmHg 73%
    17:00 +24°C° 0.1 mm 2 mps 668 mmHg 78%
    18:00 +23°C° 0.1 mm 1 mps 668 mmHg 82%
    19:00 +21°C° 0.1 mm 1 mps 669 mmHg 87%
    20:00 +21°C° 0 mm 1 mps 669 mmHg 88%
    21:00 +20°C° 0 mm 1 mps 669 mmHg 90%
    22:00 +20°C° 0 mm 1 mps 670 mmHg 92%
    23:00 +20°C° 0 mm 1 mps 669 mmHg 93%

    20 January, Saturday

    Time Temperature Precipitation Wind Pressure Humidity
    00:00 +19°C° 0 mm 1 mps 669 mmHg 94%
    01:00 +19°C° 0 mm 1 mps 668 mmHg 96%
    02:00 +19°C° 0 mm 1 mps 668 mmHg 96%
    03:00 +19°C° 0 mm 1 mps 668 mmHg 96%
    04:00 +18°C° 0 mm 1 mps 668 mmHg 97%
    05:00 +19°C° 0 mm 1 mps 669 mmHg 95%
    06:00 +19°C° 0 mm 1 mps 670 mmHg 94%
    07:00 +20°C° 0 mm 1 mps 670 mmHg 92%
    08:00 +20°C° 0 mm 2 mps 670 mmHg 85%
    09:00 +23°C° 0 mm 2 mps 671 mmHg 77%
    10:00 +24°C° 0 mm 2 mps 671 mmHg 69%
    11:00 +25°C° 0 mm 2 mps 671 mmHg 64%
    12:00 +27°C° 0 mm 3 mps 670 mmHg 59%
    13:00 +28°C° 0 mm 3 mps 669 mmHg 54%
    14:00 +28°C° 0 mm 3 mps 669 mmHg 57%
    15:00 +28°C° 0 mm 2 mps 669 mmHg 59%
    16:00 +27°C° 0 mm 2 mps 668 mmHg 62%
    17:00 +26°C° 0.1 mm 2 mps 668 mmHg 68%
    18:00 +24°C° 0.1 mm 1 mps 669 mmHg 75%
    19:00 +22°C° 0.1 mm 1 mps 669 mmHg 81%
    20:00 +21°C° 0 mm 1 mps 669 mmHg 83%
    21:00 +21°C° 0 mm 1 mps 670 mmHg 84%
    22:00 +21°C° 0 mm 1 mps 670 mmHg 86%
    23:00 +20°C° 0 mm 1 mps 670 mmHg 87%

    21 January, Sunday

    Time Temperature Precipitation Wind Pressure Humidity
    00:00 +20°C° 0 mm 1 mps 669 mmHg 89%
    01:00 +19°C° 0 mm 1 mps 668 mmHg 90%
    02:00 +19°C° 0 mm 1 mps 668 mmHg 91%
    03:00 +19°C° 0 mm 1 mps 668 mmHg 92%
    04:00 +18°C° 0 mm 1 mps 668 mmHg 93%
    05:00 +19°C° 0 mm 1 mps 669 mmHg 91%
    06:00 +18°C° 0 mm 0 mps 670 mmHg 89%
    07:00 +19°C° 0 mm 0 mps 670 mmHg 87%
    08:00 +23°C° 0.2 mm 1 mps 671 mmHg 81%
    09:00 +25°C° 0.2 mm 1 mps 671 mmHg 74%
    10:00 +27°C° 0.2 mm 2 mps 671 mmHg 68%
    11:00 +27°C° 0.7 mm 2 mps 670 mmHg 67%
    12:00 +27°C° 0.7 mm 2 mps 670 mmHg 66%
    13:00 +28°C° 0.7 mm 3 mps 669 mmHg 65%
    14:00 +27°C° 0.7 mm 2 mps 669 mmHg 69%
    15:00 +27°C° 0.7 mm 2 mps 668 mmHg 73%
    16:00 +26°C° 0.7 mm 2 mps 668 mmHg 78%
    17:00 +25°C° 0.5 mm 2 mps 668 mmHg 82%
    18:00 +23°C° 0.5 mm 1 mps 668 mmHg 86%
    19:00 +21°C° 0.5 mm 1 mps 668 mmHg 91%
    20:00 +21°C° 0 mm 1 mps 669 mmHg 91%
    21:00 +20°C° 0 mm 1 mps 669 mmHg 92%
    22:00 +20°C° 0 mm 1 mps 669 mmHg 93%
    23:00 +20°C° 0 mm 1 mps 669 mmHg 94%

    22 January, Monday

    Time Temperature Precipitation Wind Pressure Humidity
    00:00 +19°C° 0 mm 1 mps 668 mmHg 95%
    01:00 +19°C° 0 mm 1 mps 668 mmHg 96%
    02:00 +19°C° 0 mm 1 mps 668 mmHg 96%
    03:00 +19°C° 0 mm 1 mps 668 mmHg 96%
    04:00 +19°C° 0 mm 1 mps 668 mmHg 96%
    05:00 +19°C° 0 mm 1 mps 669 mmHg 95%
    06:00 +20°C° 0 mm 1 mps 669 mmHg 94%
    07:00 +21°C° 0 mm 1 mps 670 mmHg 92%
    08:00 +22°C° 0.4 mm 1 mps 670 mmHg 86%
    09:00 +24°C° 0.4 mm 2 mps 670 mmHg 79%
    10:00 +26°C° 0.4 mm 2 mps 671 mmHg 72%
    11:00 +26°C° 1.3 mm 2 mps 670 mmHg 73%
    12:00 +26°C° 1.3 mm 2 mps 669 mmHg 73%
    13:00 +27°C° 1.3 mm 2 mps 668 mmHg 74%
    14:00 +26°C° 1.3 mm 2 mps 668 mmHg 78%
    15:00 +25°C° 1.3 mm 2 mps 668 mmHg 82%
    16:00 +25°C° 1.3 mm 2 mps 667 mmHg 86%
    17:00 +24°C° 0.5 mm 2 mps 668 mmHg 89%
    18:00 +21°C° 0.5 mm 2 mps 668 mmHg 91%
    19:00 +21°C° 0.5 mm 1 mps 668 mmHg 94%
    20:00 +21°C° 0 mm 1 mps 668 mmHg 94%
    21:00 +20°C° 0 mm 1 mps 669 mmHg 94%
    22:00 +20°C° 0 mm 1 mps 669 mmHg 94%
    23:00 +20°C° 0 mm 1 mps 668 mmHg 94%
    Show more